This is the latest recevied weather packets stored in our database for station/object KC0RPY. If no packets are shown the sender has not sent any weather packets the latest 10 day(s).
| Time | Temp. | Humidity | Pressure | Rain* | Wind** | Luminosity | Snow |
|---|---|---|---|---|---|---|---|
| 1788624128 | 33.33° C | 54% | 1016.7 hPa | 0 mm | - | 672 W/m² | - |
| 1788623828 | 33.33° C | 55% | 1016.3 hPa | 0 mm | - | 591 W/m² | - |
| 1788623527 | 32.78° C | 55% | 1016.7 hPa | 0 mm | - | 560 W/m² | - |
| 1788623216 | 33.89° C | 54% | 1016.3 hPa | 0 mm | - | 636 W/m² | - |
| 1788622911 | 32.78° C | 55% | 1016.3 hPa | 0 mm | - | 643 W/m² | - |
| 1788622607 | 32.78° C | 54% | 1016.3 hPa | 0 mm | - | 445 W/m² | - |
| 1788622303 | 32.78° C | 55% | 1016.3 hPa | 0 mm | - | 601 W/m² | - |
| 1788621998 | 32.22° C | 55% | 1016.3 hPa | 0 mm | - | 567 W/m² | - |
| 1788621692 | 32.22° C | 57% | 1016 hPa | 0 mm | - | 534 W/m² | - |
| 1788621387 | 32.22° C | 57% | 1016 hPa | 0 mm | - | 515 W/m² | - |
| 1788621083 | 31.67° C | 59% | 1016.3 hPa | 0 mm | - | 467 W/m² | - |
| 1788620778 | 31.67° C | 58% | 1016 hPa | 0 mm | - | 433 W/m² | - |
| 1788620476 | 31.11° C | 59% | 1016.3 hPa | 0 mm | - | 126 W/m² | - |
| 1788620175 | 31.11° C | 59% | 1016 hPa | 0 mm | - | 350 W/m² | - |
| 1788619874 | 30.56° C | 59% | 1016 hPa | 0 mm | - | 299 W/m² | - |
| 1788619569 | 31.11° C | 59% | 1016 hPa | 0 mm | - | 138 W/m² | - |
| 1788619268 | 31.11° C | 60% | 1016 hPa | 0 mm | - | 139 W/m² | - |
| 1788618994 | 30.56° C | 60% | 1016 hPa | 0 mm | - | 165 W/m² | - |
| 1788618657 | 30.56° C | 60% | 1016 hPa | 0 mm | - | 136 W/m² | - |
| 1788618355 | 30.56° C | 61% | 1016 hPa | 0 mm | - | 121 W/m² | - |
| 1788618050 | 30° C | 61% | 1016 hPa | 0 mm | - | 324 W/m² | - |
| 1788617745 | 30° C | 62% | 1016 hPa | 0 mm | - | 104 W/m² | - |
| 1788617441 | 29.44° C | 63% | 1016 hPa | 0 mm | - | 95 W/m² | - |
| 1788617136 | 29.44° C | 63% | 1016 hPa | 0 mm | - | 82 W/m² | - |
| 1788616835 | 29.44° C | 64% | 1016 hPa | 0 mm | - | 219 W/m² | - |
* Rain latest hour (hover to see other rain measurements)
** Current wind speed in m/s (hover to see current wind gust speed)